Home > Weather > Jackson > Past weeks

Flag for USA Past Weather in Jackson, Wyoming, USA — Yesterday and Last 2 Weeks

Now
63 °F

Thundershowers. Partly sunny.


Feels Like: 63 °F
Forecast: 56 / 84 °F
Wind: 13 mph from Southwest

Location: Jackson Hole

Current Time: Jul 30, 2016 at 9:43:07 PM

Latest Report: Jul 30, 2016 at 9:15 PM


Visibility: 8 mi

Pressure: 30.06 "Hg (24.03 "Hg at 1901m altitude)

Humidity: 77%

Dew Point: 55 °F

Location of JacksonLocation

Past Weather in Jackson — Graph

°F

Jackson Temperature Yesterday

Maximum temperature yesterday: 86 °F (at 3:48 PM)
Minimum temperature yesterday: 46 °F (at 5:55 AM)
Average temperature yesterday: 61 °F

High & Low Weather Summary for the Past Weeks

 TemperatureHumidityPressure
High90 °F (Jul 21, 3:46 PM)87% (Jul 29, 6:55 AM)30.38 "Hg (Jul 29, 6:55 AM)
Low36 °F (Jul 24, 5:35 AM)11% (Jul 18, 3:55 PM)30.01 "Hg (Jul 16, 3:35 AM)
Average60 °F43%30.22 "Hg
* Reported Jul 15 9:15 PM — Jul 30 7:45 PM, Jackson, Weather by CustomWeather, © 2016

Note: Actual official high and low records may vary slightly from our data, if they occured in-between our weather recording intervals... More about our weather records

Advertising

Jackson Weather History for the Previous 24 Hours

Scroll right to see more
 ConditionsComfort  
Time TempWeatherWind HumidityBarometerVisibility
7:45 PM
Sat, Jul 30
81 °FScattered showers. Scattered clouds.15 mph26%30.05 "Hg10 mi
6:45 PM79 °FScattered clouds.14 mph28%30.05 "Hg10 mi
5:50 PM81 °FScattered showers. Scattered clouds.10 mph23%30.05 "Hg10 mi
4:46 PM82 °FSunny.15 mph23%30.07 "Hg10 mi
3:45 PM79 °FSunny.10 mph28%30.11 "Hg10 mi
2:47 PM75 °FScattered showers. Scattered clouds.12 mph31%30.14 "Hg10 mi
1:51 PM82 °FPassing clouds.12 mph17%30.08 "Hg10 mi
12:47 PM84 °FSunny.10 mph18%30.08 "Hg10 mi
11:46 AM79 °FSunny.8 mph26%30.11 "Hg10 mi
10:51 AM72 °FSunny.No wind33%30.13 "Hg10 mi
9:51 AM64 °FSunny.No wind40%30.13 "Hg10 mi
8:49 AM59 °FSunny.5 mph45%30.14 "Hg10 mi
7:51 AM52 °FSunny.No wind62%30.14 "Hg10 mi
6:43 AM46 °FClear.No wind66%30.13 "Hg10 mi
6:35 AM45 °FClear.No wind71%30.13 "Hg10 mi
6:15 AM43 °FClear.No wind81%30.12 "Hg10 mi
5:55 AM45 °FClear.3 mph81%30.12 "Hg10 mi
5:35 AM46 °FClear.6 mph76%30.12 "Hg10 mi
5:15 AM45 °FClear.No wind76%30.12 "Hg10 mi
4:55 AM46 °FClear.3 mph71%30.12 "Hg10 mi
4:35 AM46 °FClear.3 mph71%30.12 "Hg10 mi
4:15 AM48 °FClear.5 mph66%30.12 "Hg10 mi
3:55 AM46 °FClear.6 mph71%30.12 "Hg10 mi
3:35 AM52 °FClear.5 mph58%30.12 "Hg10 mi
3:15 AM54 °FClear.No wind54%30.13 "Hg10 mi
2:55 AM52 °FClear.6 mph58%30.13 "Hg10 mi
2:35 AM52 °FClear.3 mph58%30.13 "Hg10 mi
2:15 AM54 °FClear.3 mph54%30.12 "Hg10 mi
1:55 AM52 °FClear.5 mph58%30.13 "Hg10 mi
1:35 AM52 °FPassing clouds.3 mph58%30.13 "Hg10 mi
1:15 AM54 °FPassing clouds.7 mph54%30.13 "Hg10 mi
12:55 AM54 °FPassing clouds.7 mph54%30.13 "Hg10 mi
12:35 AM54 °FClear.No wind54%30.13 "Hg10 mi
12:15 AM55 °FClear.5 mph47%30.13 "Hg10 mi
11:55 PM
Fri, Jul 29
54 °FClear.9 mph51%30.13 "Hg10 mi
11:35 PM55 °FClear.3 mph47%30.13 "Hg10 mi
11:15 PM55 °FClear.No wind51%30.13 "Hg10 mi
10:55 PM55 °FClear.7 mph51%30.13 "Hg10 mi
10:35 PM57 °FClear.9 mph48%30.12 "Hg10 mi
10:15 PM64 °FClear.5 mph32%30.12 "Hg10 mi
9:55 PM66 °FClear.8 mph30%30.12 "Hg10 mi
9:35 PM66 °FSunny.No wind28%30.12 "Hg10 mi
Weather by CustomWeather, © 2016

See weather overviewHow to use our weather pages